Weather Roundup
Issued by NWS

Home | Current Version | Previous Version | Text Only | Print | Product List | Glossary On
Versions: 1 2 3 4 5 6 7 8 9 10 11 12 13 14 15 16 17 18 19 20 21 22 23 24 25 26 27 28 29 30 31 32 33 34 35 36 37 38 39 40 41 42 43 44 45 46 47 48 49 50
783
NZUS93 KARX 191410
HRRWXR

CURRENT HOURLY OBSERVATIONS ACROSS
MUCH OF THE UPPER MISSISSIPPI VALLEY
NATIONAL WEATHER SERVICE LA CROSSE WI
800 AM CST THU JAN 19 2017


...SOUTHEAST MINNESOTA...


CITY           SKY/WX    TMP DP  RH WIND       PRES   REMARKS
ROCHESTER      FOG       29  29 100 S12       29.85S VSB<1/4 WCI  19
ROCHESTER/MAYO CLOUDY    30  30 100 SE8       29.86S VSB 1/4 WCI  23
WINONA         CLOUDY    32  32 100 CALM      29.91R
AUSTIN         FOG       30  28  93 S7        29.85R VSB 1/4 WCI  23
ALBERT LEA     FOG       30  30 100 S9        29.84R VSB<1/4 WCI  22
DODGE CENTER   SNOW      28  28 100 CALM      29.83F VSB<1/4
PRESTON        FOG       29  28  97 S7        29.87S VSB<1/4 WCI  22
OWATONNA       FOG       30  30 100 SE6       29.83S VSB 1/4 WCI  24
FARIBAULT      CLEAR    N/A N/A N/A SE5       29.83F FOG
$$

...ELSEWHERE IN MINNESOTA...


CITY           SKY/WX    TMP DP  RH WIND       PRES   REMARKS
MINNEAPOLIS    CLEAR     31  28  89 SE8       29.82S WCI  23
INTNL FALLS    CLOUDY    25  22  88 S5        29.66F FOG     WCI  19
DULUTH         FOG       34  34 100 S12       29.76S VSB 1/4 WCI  25
RED WING       CLEAR     30  28  93 SE6       29.85S FOG     WCI  24
REDWOOD FALLS  CLEAR     33  29  85 S13       29.74F WCI  24
MANKATO        FOG       32  31  96 S7        29.81F VSB 1/2 WCI  26
WORTHINGTON    CLEAR     35  32  88 S9        29.75F WCI  28
FAIRMONT       MIX PCPN  32  31  96 S14       29.80S VSB 1/4 WCI  22
$$

...SOUTHWEST WISCONSIN...


CITY           SKY/WX    TMP DP  RH WIND       PRES   REMARKS
LA CROSSE      CLOUDY    36  32  85 S14       29.91S FOG     WCI  27
PRAIRIE DU CHI FOG       33  32  98 CALM      29.92S VSB 1
BOSCOBEL       FOG       34  33  96 CALM      29.94S VSB 3/4
LONE ROCK      FOG       33  32  96 S3        29.94S VSB 3/4
PLATTEVILLE    CLOUDY    32  32 100 SE3       29.93F VSB<1/4
FORT MC COY    FOG       24  24  99 CALM      29.91S VSB 1/2
CAMP DOUGLAS   CLEAR     27  27 100 SE5       29.91R FOG     WCI  21
MAUSTON-NEW LI FOG       31  31  99 SE3       29.91R VSB 1
VIROQUA        CLOUDY    31  31 100 S5        29.90S VSB<1/4 WCI  26
WIS DELLS      CLOUDY    29  29  99 S3        29.92S FOG
$$

...ELSEWHERE IN WISCONSIN...


CITY           SKY/WX    TMP DP  RH WIND       PRES   REMARKS
MILWAUKEE      FOG       33  32  96 S7        29.98S VSB 1/4 WCI  27
MADISON        FOG       32  31  96 S7        29.95S VSB 1/4 WCI  26
GREEN BAY      FOG       35  35 100 SW5       29.95S VSB 1   WCI  31
EAU CLAIRE     FOG       28  28 100 CALM      29.87S VSB 1
BLACK RVR FLS  FOG       24  24 100 CALM      29.90S VSB 3/4
MEDFORD        FOG       31  31 100 S6        29.88R VSB<1/4 WCI  25
WAUSAU         FOG       31  31 100 S6        29.90R VSB 1/4 WCI  25
WIS RAPIDS     FOG       32  32 100 CALM      29.92F VSB 1/4
MARSHFIELD     FOG       32  31  96 SE6       29.88F VSB<1/4 WCI  26
RICE LAKE      FOG       31  30  99 SE6       29.87S VSB<1/4 WCI  25
$$

...NORTHEAST IOWA...


CITY           SKY/WX    TMP DP  RH WIND       PRES   REMARKS
WATERLOO       FOG       31  30  96 SE6       29.89S VSB<1/4 WCI  25
DUBUQUE        FOG       30  30 100 SE3       29.91F VSB 1/2
DECORAH        FOG       30  30 100 S8        29.89R VSB<1/4 WCI  23
MASON CITY     FOG       30  30 100 S7        29.85F VSB<1/4 WCI  23
CHARLES CITY   FOG       30  32 100 SE7       29.87F VSB<1/4 WCI  23
OELWEIN        FOG       30  30 100 E6        29.89S VSB<1/4 WCI  24
$$

...ELSEWHERE IN IOWA...


CITY           SKY/WX    TMP DP  RH WIND       PRES   REMARKS
DES MOINES     CLOUDY    33  32  96 E6        29.85S FOG     WCI  28
IOWA CITY      CLEAR     31  29  92 E3        29.92R FOG
FORT DODGE     CLOUDY    32  30  93 SE5       29.83F WCI  27
MARSHALLTOWN   FOG       30  30 100 E8        29.86F VSB 1/4 WCI  22
CEDAR RAPIDS   FOG       28  28 100 E6        29.88F VSB 1/2 WCI  22
$$

...NORTHERN ILLINOIS...


CITY           SKY/WX    TMP DP  RH WIND       PRES   REMARKS
CHICAGO-OHARE  CLOUDY    34  33  96 S5        30.00R FOG     WCI  30
CHICAGO-MIDWAY CLOUDY    34  32  92 S6        30.01S FOG     WCI  29
MOLINE         CLOUDY    31  28  89 NE3       29.92F FOG
ROCKFORD       FOG       32  29  88 S8        29.98S VSB 1/4 WCI  25
PEORIA         CLOUDY    36  35  96 E6        29.96F FOG     WCI  31
$$

NOTE: "FAIR" INDICATES FEW OR NO CLOUDS BELOW 12,000 FEET WITH NO
SIGNIFICANT WEATHER AND/OR OBSTRUCTIONS TO VISIBILITY. WIND
SPEEDS ARE IN MILES-PER-HOUR.




USA.gov is the U.S. government's official web portal to all federal, state and local government web resources and services.